2020,06,26,00,00,00,-919.4,,,,,,,,,,,,,,
2020,06,26,00,01,00,,,,,,,,,,,,,,,
2020,06,26,00,02,00,-1121.0,,,,,,,,,,,,,,
2020,06,26,00,03,00,-1117.9,,,,,,,,,,,,,,
2020,06,26,00,04,00,-1287.8,,,,,,,,,,,,,,
2020,06,26,00,05,00,-1461.8,,,,,,,,,,,,,,
2020,06,26,00,06,00,-1447.9,,,,,,,,,,,,,,
2020,06,26,00,07,00,-1344.7,,,,,,,,,,,,,,
2020,06,26,00,08,00,-1301.9,,,,,,,,,,,,,,
2020,06,26,00,09,00,-1214.1,,,,,,,,,,,,,,
2020,06,26,00,10,00,-986.0,,,,,,,,,,,,,,
2020,06,26,00,11,00,-876.5,,,,,,,,,,,,,,
2020,06,26,00,12,00,-779.3,,,,,,,,,,,,,,
2020,06,26,00,13,00,-602.1,,,,,,,,,,,,,,
2020,06,26,00,14,00,-493.9,,,,,,,,,,,,,,
2020,06,26,00,15,00,-426.0,,,,,,,,,,,,,,
2020,06,26,00,16,00,-461.5,,,,,,,,,,,,,,
2020,06,26,00,17,00,-597.8,,,,,,,,,,,,,,
2020,06,26,00,18,00,-924.8,,,,,,,,,,,,,,
2020,06,26,00,19,00,-918.2,,,,,,,,,,,,,,
2020,06,26,00,20,00,-832.7,,,,,,,,,,,,,,
2020,06,26,00,21,00,-709.8,,,,,,,,,,,,,,
2020,06,26,00,22,00,-745.4,,,,,,,,,,,,,,
2020,06,26,00,23,00,-669.0,,,,,,,,,,,,,,
2020,06,26,00,24,00,-459.0,,,,,,,,,,,,,,
2020,06,26,00,25,00,-309.2,,,,,,,,,,,,,,
2020,06,26,00,26,00,-164.8,,,,,,,,,,,,,,
2020,06,26,00,27,00,-77.5,,,,,,,,,,,,,,
2020,06,26,00,28,00,-104.0,,,,,,,,,,,,,,
2020,06,26,00,29,00,-44.9,,,,,,,,,,,,,,
2020,06,26,00,30,00,-119.9,,,,,,,,,,,,,,
2020,06,26,00,31,00,-209.1,,,,,,,,,,,,,,
2020,06,26,00,32,00,-42.2,,,,,,,,,,,,,,
2020,06,26,00,33,00,131.4,,,,,,,,,,,,,,
2020,06,26,00,34,00,184.5,,,,,,,,,,,,,,
2020,06,26,00,35,00,215.0,,,,,,,,,,,,,,
2020,06,26,00,36,00,188.3,,,,,,,,,,,,,,
2020,06,26,00,37,00,194.6,,,,,,,,,,,,,,
2020,06,26,00,38,00,221.7,,,,,,,,,,,,,,
2020,06,26,00,39,00,251.2,,,,,,,,,,,,,,
2020,06,26,00,40,00,262.1,,,,,,,,,,,,,,
2020,06,26,00,41,00,267.4,,,,,,,,,,,,,,
2020,06,26,00,42,00,307.3,,,,,,,,,,,,,,
2020,06,26,00,43,00,259.9,,,,,,,,,,,,,,
2020,06,26,00,44,00,287.9,,,,,,,,,,,,,,
2020,06,26,00,45,00,,,,,,,,,,,,,,,
2020,06,26,00,46,00,,,,,,,,,,,,,,,
2020,06,26,00,47,00,180.1,,,,,,,,,,,,,,
2020,06,26,00,48,00,86.3,,,,,,,,,,,,,,
2020,06,26,00,49,00,107.8,,,,,,,,,,,,,,
2020,06,26,00,50,00,86.4,,,,,,,,,,,,,,
2020,06,26,00,51,00,110.8,,,,,,,,,,,,,,
2020,06,26,00,52,00,198.6,,,,,,,,,,,,,,
2020,06,26,00,53,00,179.4,,,,,,,,,,,,,,
2020,06,26,00,54,00,142.1,,,,,,,,,,,,,,
2020,06,26,00,55,00,170.8,,,,,,,,,,,,,,
2020,06,26,00,56,00,243.4,,,,,,,,,,,,,,
2020,06,26,00,57,00,246.4,,,,,,,,,,,,,,
2020,06,26,00,58,00,215.5,,,,,,,,,,,,,,
2020,06,26,00,59,00,223.0,,,,,,,,,,,,,,
2020,06,26,01,00,00,208.3,,,,,,,,,,,,,,
2020,06,26,01,01,00,260.0,,,,,,,,,,,,,,
2020,06,26,01,02,00,309.8,,,,,,,,,,,,,,
2020,06,26,01,03,00,319.4,,,,,,,,,,,,,,
2020,06,26,01,04,00,326.5,,,,,,,,,,,,,,
2020,06,26,01,05,00,315.1,,,,,,,,,,,,,,
2020,06,26,01,06,00,319.2,,,,,,,,,,,,,,
2020,06,26,01,07,00,306.3,,,,,,,,,,,,,,
2020,06,26,01,08,00,298.2,,,,,,,,,,,,,,
2020,06,26,01,09,00,324.5,,,,,,,,,,,,,,
2020,06,26,01,10,00,341.0,,,,,,,,,,,,,,
2020,06,26,01,11,00,310.3,,,,,,,,,,,,,,
2020,06,26,01,12,00,287.2,,,,,,,,,,,,,,
2020,06,26,01,13,00,261.2,,,,,,,,,,,,,,
2020,06,26,01,14,00,248.5,,,,,,,,,,,,,,
2020,06,26,01,15,00,237.9,,,,,,,,,,,,,,
2020,06,26,01,16,00,239.6,,,,,,,,,,,,,,
2020,06,26,01,17,00,242.4,,,,,,,,,,,,,,
2020,06,26,01,18,00,233.6,,,,,,,,,,,,,,
2020,06,26,01,19,00,220.6,,,,,,,,,,,,,,
2020,06,26,01,20,00,225.3,,,,,,,,,,,,,,
2020,06,26,01,21,00,239.5,,,,,,,,,,,,,,
2020,06,26,01,22,00,256.1,,,,,,,,,,,,,,
2020,06,26,01,23,00,280.0,,,,,,,,,,,,,,
2020,06,26,01,24,00,278.8,,,,,,,,,,,,,,
2020,06,26,01,25,00,286.9,,,,,,,,,,,,,,
2020,06,26,01,26,00,300.7,,,,,,,,,,,,,,
2020,06,26,01,27,00,305.0,,,,,,,,,,,,,,
2020,06,26,01,28,00,305.9,,,,,,,,,,,,,,
2020,06,26,01,29,00,271.8,,,,,,,,,,,,,,
2020,06,26,01,30,00,256.4,,,,,,,,,,,,,,
2020,06,26,01,31,00,266.9,,,,,,,,,,,,,,
2020,06,26,01,32,00,274.0,,,,,,,,,,,,,,
2020,06,26,01,33,00,259.7,,,,,,,,,,,,,,
2020,06,26,01,34,00,204.5,,,,,,,,,,,,,,
2020,06,26,01,35,00,220.3,,,,,,,,,,,,,,
2020,06,26,01,36,00,230.7,,,,,,,,,,,,,,
2020,06,26,01,37,00,220.4,,,,,,,,,,,,,,
2020,06,26,01,38,00,217.3,,,,,,,,,,,,,,
2020,06,26,01,39,00,222.8,,,,,,,,,,,,,,
2020,06,26,01,40,00,265.0,,,,,,,,,,,,,,
2020,06,26,01,41,00,258.1,,,,,,,,,,,,,,
2020,06,26,01,42,00,271.0,,,,,,,,,,,,,,
2020,06,26,01,43,00,277.6,,,,,,,,,,,,,,
2020,06,26,01,44,00,243.5,,,,,,,,,,,,,,
2020,06,26,01,45,00,257.1,,,,,,,,,,,,,,
2020,06,26,01,46,00,252.1,,,,,,,,,,,,,,
2020,06,26,01,47,00,258.3,,,,,,,,,,,,,,
2020,06,26,01,48,00,243.2,,,,,,,,,,,,,,
2020,06,26,01,49,00,232.4,,,,,,,,,,,,,,
2020,06,26,01,50,00,265.9,,,,,,,,,,,,,,
2020,06,26,01,51,00,274.4,,,,,,,,,,,,,,
2020,06,26,01,52,00,274.4,,,,,,,,,,,,,,
2020,06,26,01,53,00,259.2,,,,,,,,,,,,,,
2020,06,26,01,54,00,275.5,,,,,,,,,,,,,,
2020,06,26,01,55,00,275.5,,,,,,,,,,,,,,
2020,06,26,01,56,00,254.8,,,,,,,,,,,,,,
2020,06,26,01,57,00,254.7,,,,,,,,,,,,,,
2020,06,26,01,58,00,273.9,,,,,,,,,,,,,,
2020,06,26,01,59,00,278.4,,,,,,,,,,,,,,
2020,06,26,02,00,00,265.0,,,,,,,,,,,,,,
2020,06,26,02,01,00,265.2,,,,,,,,,,,,,,
2020,06,26,02,02,00,269.1,,,,,,,,,,,,,,
2020,06,26,02,03,00,282.5,,,,,,,,,,,,,,
2020,06,26,02,04,00,290.3,,,,,,,,,,,,,,
2020,06,26,02,05,00,281.1,,,,,,,,,,,,,,
2020,06,26,02,06,00,276.4,,,,,,,,,,,,,,
2020,06,26,02,07,00,284.0,,,,,,,,,,,,,,
2020,06,26,02,08,00,282.3,,,,,,,,,,,,,,
2020,06,26,02,09,00,291.0,,,,,,,,,,,,,,
2020,06,26,02,10,00,289.0,,,,,,,,,,,,,,
2020,06,26,02,11,00,278.5,,,,,,,,,,,,,,
2020,06,26,02,12,00,267.5,,,,,,,,,,,,,,
2020,06,26,02,13,00,259.8,,,,,,,,,,,,,,
2020,06,26,02,14,00,266.5,,,,,,,,,,,,,,
2020,06,26,02,15,00,253.1,,,,,,,,,,,,,,
2020,06,26,02,16,00,271.7,,,,,,,,,,,,,,
2020,06,26,02,17,00,240.9,,,,,,,,,,,,,,
2020,06,26,02,18,00,251.3,,,,,,,,,,,,,,
2020,06,26,02,19,00,256.0,,,,,,,,,,,,,,
2020,06,26,02,20,00,248.1,,,,,,,,,,,,,,
2020,06,26,02,21,00,262.0,,,,,,,,,,,,,,
2020,06,26,02,22,00,270.3,,,,,,,,,,,,,,
2020,06,26,02,23,00,279.0,,,,,,,,,,,,,,
2020,06,26,02,24,00,284.7,,,,,,,,,,,,,,
2020,06,26,02,25,00,281.2,,,,,,,,,,,,,,
2020,06,26,02,26,00,299.2,,,,,,,,,,,,,,
2020,06,26,02,27,00,304.2,,,,,,,,,,,,,,
2020,06,26,02,28,00,277.1,,,,,,,,,,,,,,
2020,06,26,02,29,00,249.1,,,,,,,,,,,,,,
2020,06,26,02,30,00,250.0,,,,,,,,,,,,,,
2020,06,26,02,31,00,245.7,,,,,,,,,,,,,,
2020,06,26,02,32,00,225.0,,,,,,,,,,,,,,
2020,06,26,02,33,00,220.3,,,,,,,,,,,,,,
2020,06,26,02,34,00,203.8,,,,,,,,,,,,,,
2020,06,26,02,35,00,198.2,,,,,,,,,,,,,,
2020,06,26,02,36,00,180.2,,,,,,,,,,,,,,
2020,06,26,02,37,00,168.3,,,,,,,,,,,,,,
2020,06,26,02,38,00,161.9,,,,,,,,,,,,,,
2020,06,26,02,39,00,174.4,,,,,,,,,,,,,,
2020,06,26,02,40,00,174.8,,,,,,,,,,,,,,
2020,06,26,02,41,00,182.9,,,,,,,,,,,,,,
2020,06,26,02,42,00,199.6,,,,,,,,,,,,,,
2020,06,26,02,43,00,209.6,,,,,,,,,,,,,,
2020,06,26,02,44,00,229.8,,,,,,,,,,,,,,
2020,06,26,02,45,00,231.6,,,,,,,,,,,,,,
2020,06,26,02,46,00,232.3,,,,,,,,,,,,,,
2020,06,26,02,47,00,231.7,,,,,,,,,,,,,,
2020,06,26,02,48,00,242.3,,,,,,,,,,,,,,
2020,06,26,02,49,00,227.2,,,,,,,,,,,,,,
2020,06,26,02,50,00,212.0,,,,,,,,,,,,,,
2020,06,26,02,51,00,215.1,,,,,,,,,,,,,,
2020,06,26,02,52,00,230.1,,,,,,,,,,,,,,
2020,06,26,02,53,00,255.3,,,,,,,,,,,,,,
2020,06,26,02,54,00,298.2,,,,,,,,,,,,,,
2020,06,26,02,55,00,306.4,,,,,,,,,,,,,,
2020,06,26,02,56,00,287.5,,,,,,,,,,,,,,
2020,06,26,02,57,00,261.6,,,,,,,,,,,,,,
2020,06,26,02,58,00,268.7,,,,,,,,,,,,,,
2020,06,26,02,59,00,261.6,,,,,,,,,,,,,,
2020,06,26,03,00,00,270.0,,,,,,,,,,,,,,
2020,06,26,03,01,00,270.4,,,,,,,,,,,,,,
2020,06,26,03,02,00,272.2,,,,,,,,,,,,,,
2020,06,26,03,03,00,278.3,,,,,,,,,,,,,,
2020,06,26,03,04,00,265.0,,,,,,,,,,,,,,
2020,06,26,03,05,00,269.9,,,,,,,,,,,,,,
2020,06,26,03,06,00,276.8,,,,,,,,,,,,,,
2020,06,26,03,07,00,282.2,,,,,,,,,,,,,,
2020,06,26,03,08,00,261.0,,,,,,,,,,,,,,
2020,06,26,03,09,00,253.0,,,,,,,,,,,,,,
2020,06,26,03,10,00,255.4,,,,,,,,,,,,,,
2020,06,26,03,11,00,256.2,,,,,,,,,,,,,,
2020,06,26,03,12,00,251.9,,,,,,,,,,,,,,
2020,06,26,03,13,00,274.4,,,,,,,,,,,,,,
2020,06,26,03,14,00,271.7,,,,,,,,,,,,,,
2020,06,26,03,15,00,275.2,,,,,,,,,,,,,,
2020,06,26,03,16,00,277.0,,,,,,,,,,,,,,
2020,06,26,03,17,00,297.1,,,,,,,,,,,,,,
2020,06,26,03,18,00,277.7,,,,,,,,,,,,,,
2020,06,26,03,19,00,279.2,,,,,,,,,,,,,,
2020,06,26,03,20,00,271.2,,,,,,,,,,,,,,
2020,06,26,03,21,00,253.1,,,,,,,,,,,,,,
2020,06,26,03,22,00,248.8,,,,,,,,,,,,,,
2020,06,26,03,23,00,256.7,,,,,,,,,,,,,,
2020,06,26,03,24,00,230.3,,,,,,,,,,,,,,
2020,06,26,03,25,00,220.0,,,,,,,,,,,,,,
2020,06,26,03,26,00,196.8,,,,,,,,,,,,,,
2020,06,26,03,27,00,223.2,,,,,,,,,,,,,,
2020,06,26,03,28,00,258.1,,,,,,,,,,,,,,
2020,06,26,03,29,00,260.7,,,,,,,,,,,,,,
2020,06,26,03,30,00,235.8,,,,,,,,,,,,,,
2020,06,26,03,31,00,237.0,,,,,,,,,,,,,,
2020,06,26,03,32,00,220.0,,,,,,,,,,,,,,
2020,06,26,03,33,00,188.7,,,,,,,,,,,,,,
2020,06,26,03,34,00,213.0,,,,,,,,,,,,,,
2020,06,26,03,35,00,215.8,,,,,,,,,,,,,,
2020,06,26,03,36,00,215.5,,,,,,,,,,,,,,
2020,06,26,03,37,00,222.5,,,,,,,,,,,,,,
2020,06,26,03,38,00,232.1,,,,,,,,,,,,,,
2020,06,26,03,39,00,228.6,,,,,,,,,,,,,,
2020,06,26,03,40,00,239.9,,,,,,,,,,,,,,
2020,06,26,03,41,00,229.8,,,,,,,,,,,,,,
2020,06,26,03,42,00,225.0,,,,,,,,,,,,,,
2020,06,26,03,43,00,214.8,,,,,,,,,,,,,,
2020,06,26,03,44,00,208.6,,,,,,,,,,,,,,
2020,06,26,03,45,00,216.1,,,,,,,,,,,,,,
2020,06,26,03,46,00,225.0,,,,,,,,,,,,,,
2020,06,26,03,47,00,219.6,,,,,,,,,,,,,,
2020,06,26,03,48,00,212.7,,,,,,,,,,,,,,
2020,06,26,03,49,00,205.4,,,,,,,,,,,,,,
2020,06,26,03,50,00,203.9,,,,,,,,,,,,,,
2020,06,26,03,51,00,206.3,,,,,,,,,,,,,,
2020,06,26,03,52,00,204.1,,,,,,,,,,,,,,
2020,06,26,03,53,00,203.7,,,,,,,,,,,,,,
2020,06,26,03,54,00,203.6,,,,,,,,,,,,,,
2020,06,26,03,55,00,202.8,,,,,,,,,,,,,,
2020,06,26,03,56,00,202.2,,,,,,,,,,,,,,
2020,06,26,03,57,00,203.8,,,,,,,,,,,,,,
2020,06,26,03,58,00,203.5,,,,,,,,,,,,,,
2020,06,26,03,59,00,204.0,,,,,,,,,,,,,,
2020,06,26,04,00,00,208.9,,,,,,,,,,,,,,
2020,06,26,04,01,00,216.3,,,,,,,,,,,,,,
2020,06,26,04,02,00,207.2,,,,,,,,,,,,,,
2020,06,26,04,03,00,204.0,,,,,,,,,,,,,,
2020,06,26,04,04,00,203.5,,,,,,,,,,,,,,
2020,06,26,04,05,00,203.9,,,,,,,,,,,,,,
2020,06,26,04,06,00,204.9,,,,,,,,,,,,,,
2020,06,26,04,07,00,203.9,,,,,,,,,,,,,,
2020,06,26,04,08,00,209.6,,,,,,,,,,,,,,
2020,06,26,04,09,00,222.2,,,,,,,,,,,,,,
2020,06,26,04,10,00,238.2,,,,,,,,,,,,,,
2020,06,26,04,11,00,236.4,,,,,,,,,,,,,,
2020,06,26,04,12,00,221.5,,,,,,,,,,,,,,
2020,06,26,04,13,00,220.0,,,,,,,,,,,,,,
2020,06,26,04,14,00,236.3,,,,,,,,,,,,,,
2020,06,26,04,15,00,240.2,,,,,,,,,,,,,,
2020,06,26,04,16,00,227.0,,,,,,,,,,,,,,
2020,06,26,04,17,00,226.6,,,,,,,,,,,,,,
2020,06,26,04,18,00,229.5,,,,,,,,,,,,,,
2020,06,26,04,19,00,231.4,,,,,,,,,,,,,,
2020,06,26,04,20,00,246.0,,,,,,,,,,,,,,
2020,06,26,04,21,00,254.8,,,,,,,,,,,,,,
2020,06,26,04,22,00,229.7,,,,,,,,,,,,,,
2020,06,26,04,23,00,219.3,,,,,,,,,,,,,,
2020,06,26,04,24,00,245.4,,,,,,,,,,,,,,
2020,06,26,04,25,00,235.3,,,,,,,,,,,,,,
2020,06,26,04,26,00,229.0,,,,,,,,,,,,,,
2020,06,26,04,27,00,230.7,,,,,,,,,,,,,,
2020,06,26,04,28,00,226.9,,,,,,,,,,,,,,
2020,06,26,04,29,00,234.7,,,,,,,,,,,,,,
2020,06,26,04,30,00,222.6,,,,,,,,,,,,,,
2020,06,26,04,31,00,220.2,,,,,,,,,,,,,,
2020,06,26,04,32,00,227.7,,,,,,,,,,,,,,
2020,06,26,04,33,00,228.7,,,,,,,,,,,,,,
2020,06,26,04,34,00,227.1,,,,,,,,,,,,,,
2020,06,26,04,35,00,225.1,,,,,,,,,,,,,,
2020,06,26,04,36,00,231.3,,,,,,,,,,,,,,
2020,06,26,04,37,00,223.7,,,,,,,,,,,,,,
2020,06,26,04,38,00,231.0,,,,,,,,,,,,,,
2020,06,26,04,39,00,224.9,,,,,,,,,,,,,,
2020,06,26,04,40,00,220.0,,,,,,,,,,,,,,
2020,06,26,04,41,00,225.2,,,,,,,,,,,,,,
2020,06,26,04,42,00,226.6,,,,,,,,,,,,,,
2020,06,26,04,43,00,215.4,,,,,,,,,,,,,,
2020,06,26,04,44,00,221.7,,,,,,,,,,,,,,
2020,06,26,04,45,00,221.0,,,,,,,,,,,,,,
2020,06,26,04,46,00,206.4,,,,,,,,,,,,,,
2020,06,26,04,47,00,204.2,,,,,,,,,,,,,,
2020,06,26,04,48,00,217.0,,,,,,,,,,,,,,
2020,06,26,04,49,00,218.8,,,,,,,,,,,,,,
2020,06,26,04,50,00,211.2,,,,,,,,,,,,,,
2020,06,26,04,51,00,213.8,,,,,,,,,,,,,,
2020,06,26,04,52,00,221.0,,,,,,,,,,,,,,
2020,06,26,04,53,00,229.0,,,,,,,,,,,,,,
2020,06,26,04,54,00,229.0,,,,,,,,,,,,,,
2020,06,26,04,55,00,228.1,,,,,,,,,,,,,,
2020,06,26,04,56,00,224.6,,,,,,,,,,,,,,
2020,06,26,04,57,00,232.5,,,,,,,,,,,,,,
2020,06,26,04,58,00,211.5,,,,,,,,,,,,,,
2020,06,26,04,59,00,206.3,,,,,,,,,,,,,,
2020,06,26,05,00,00,210.2,,,,,,,,,,,,,,
2020,06,26,05,01,00,204.4,,,,,,,,,,,,,,
2020,06,26,05,02,00,200.2,,,,,,,,,,,,,,
2020,06,26,05,03,00,215.6,,,,,,,,,,,,,,
2020,06,26,05,04,00,206.9,,,,,,,,,,,,,,
2020,06,26,05,05,00,201.3,,,,,,,,,,,,,,
2020,06,26,05,06,00,204.7,,,,,,,,,,,,,,
2020,06,26,05,07,00,208.2,,,,,,,,,,,,,,
2020,06,26,05,08,00,203.0,,,,,,,,,,,,,,
2020,06,26,05,09,00,203.0,,,,,,,,,,,,,,
2020,06,26,05,10,00,194.4,,,,,,,,,,,,,,
2020,06,26,05,11,00,200.9,,,,,,,,,,,,,,
2020,06,26,05,12,00,203.0,,,,,,,,,,,,,,
2020,06,26,05,13,00,205.6,,,,,,,,,,,,,,
2020,06,26,05,14,00,214.2,,,,,,,,,,,,,,
2020,06,26,05,15,00,210.6,,,,,,,,,,,,,,
2020,06,26,05,16,00,228.8,,,,,,,,,,,,,,
2020,06,26,05,17,00,233.8,,,,,,,,,,,,,,
2020,06,26,05,18,00,226.5,,,,,,,,,,,,,,
2020,06,26,05,19,00,213.5,,,,,,,,,,,,,,
2020,06,26,05,20,00,204.6,,,,,,,,,,,,,,
2020,06,26,05,21,00,207.4,,,,,,,,,,,,,,
2020,06,26,05,22,00,188.8,,,,,,,,,,,,,,
2020,06,26,05,23,00,204.3,,,,,,,,,,,,,,
2020,06,26,05,24,00,223.2,,,,,,,,,,,,,,
2020,06,26,05,25,00,213.9,,,,,,,,,,,,,,
2020,06,26,05,26,00,216.7,,,,,,,,,,,,,,
2020,06,26,05,27,00,205.7,,,,,,,,,,,,,,
2020,06,26,05,28,00,212.8,,,,,,,,,,,,,,
2020,06,26,05,29,00,215.7,,,,,,,,,,,,,,
2020,06,26,05,30,00,220.2,,,,,,,,,,,,,,
2020,06,26,05,31,00,215.1,,,,,,,,,,,,,,
2020,06,26,05,32,00,217.7,,,,,,,,,,,,,,
2020,06,26,05,33,00,227.2,,,,,,,,,,,,,,
2020,06,26,05,34,00,213.0,,,,,,,,,,,,,,
2020,06,26,05,35,00,214.8,,,,,,,,,,,,,,
2020,06,26,05,36,00,215.9,,,,,,,,,,,,,,
2020,06,26,05,37,00,205.9,,,,,,,,,,,,,,
2020,06,26,05,38,00,223.8,,,,,,,,,,,,,,
2020,06,26,05,39,00,236.8,,,,,,,,,,,,,,
2020,06,26,05,40,00,239.5,,,,,,,,,,,,,,
2020,06,26,05,41,00,231.0,,,,,,,,,,,,,,
2020,06,26,05,42,00,226.6,,,,,,,,,,,,,,
2020,06,26,05,43,00,234.7,,,,,,,,,,,,,,
2020,06,26,05,44,00,228.7,,,,,,,,,,,,,,
2020,06,26,05,45,00,236.4,,,,,,,,,,,,,,
2020,06,26,05,46,00,249.1,,,,,,,,,,,,,,
2020,06,26,05,47,00,234.6,,,,,,,,,,,,,,
2020,06,26,05,48,00,227.3,,,,,,,,,,,,,,
2020,06,26,05,49,00,231.3,,,,,,,,,,,,,,
2020,06,26,05,50,00,250.1,,,,,,,,,,,,,,
2020,06,26,05,51,00,234.8,,,,,,,,,,,,,,
2020,06,26,05,52,00,224.7,,,,,,,,,,,,,,
2020,06,26,05,53,00,232.6,,,,,,,,,,,,,,
2020,06,26,05,54,00,250.3,,,,,,,,,,,,,,
2020,06,26,05,55,00,258.1,,,,,,,,,,,,,,
2020,06,26,05,56,00,260.6,,,,,,,,,,,,,,
2020,06,26,05,57,00,269.1,,,,,,,,,,,,,,
2020,06,26,05,58,00,260.8,,,,,,,,,,,,,,
2020,06,26,05,59,00,274.8,,,,,,,,,,,,,,
2020,06,26,06,00,00,268.8,,,,,,,,,,,,,,
2020,06,26,06,01,00,277.3,,,,,,,,,,,,,,
2020,06,26,06,02,00,272.2,,,,,,,,,,,,,,
2020,06,26,06,03,00,269.2,,,,,,,,,,,,,,
2020,06,26,06,04,00,267.2,,,,,,,,,,,,,,
2020,06,26,06,05,00,273.9,,,,,,,,,,,,,,
2020,06,26,06,06,00,266.1,,,,,,,,,,,,,,
2020,06,26,06,07,00,257.2,,,,,,,,,,,,,,
2020,06,26,06,08,00,269.5,,,,,,,,,,,,,,
2020,06,26,06,09,00,278.7,,,,,,,,,,,,,,
2020,06,26,06,10,00,271.6,,,,,,,,,,,,,,
2020,06,26,06,11,00,288.7,,,,,,,,,,,,,,
2020,06,26,06,12,00,282.5,,,,,,,,,,,,,,
2020,06,26,06,13,00,281.6,,,,,,,,,,,,,,
2020,06,26,06,14,00,297.3,,,,,,,,,,,,,,
2020,06,26,06,15,00,292.1,,,,,,,,,,,,,,
2020,06,26,06,16,00,303.4,,,,,,,,,,,,,,
2020,06,26,06,17,00,294.3,,,,,,,,,,,,,,
2020,06,26,06,18,00,276.5,,,,,,,,,,,,,,
2020,06,26,06,19,00,292.3,,,,,,,,,,,,,,
2020,06,26,06,20,00,289.3,,,,,,,,,,,,,,
2020,06,26,06,21,00,251.2,,,,,,,,,,,,,,
2020,06,26,06,22,00,271.6,,,,,,,,,,,,,,
2020,06,26,06,23,00,285.3,,,,,,,,,,,,,,
2020,06,26,06,24,00,268.3,,,,,,,,,,,,,,
2020,06,26,06,25,00,294.2,,,,,,,,,,,,,,
2020,06,26,06,26,00,274.6,,,,,,,,,,,,,,
2020,06,26,06,27,00,256.3,,,,,,,,,,,,,,
2020,06,26,06,28,00,275.4,,,,,,,,,,,,,,
2020,06,26,06,29,00,289.9,,,,,,,,,,,,,,
2020,06,26,06,30,00,289.3,,,,,,,,,,,,,,
2020,06,26,06,31,00,303.8,,,,,,,,,,,,,,
2020,06,26,06,32,00,272.7,,,,,,,,,,,,,,
2020,06,26,06,33,00,285.1,,,,,,,,,,,,,,
2020,06,26,06,34,00,289.8,,,,,,,,,,,,,,
2020,06,26,06,35,00,317.9,,,,,,,,,,,,,,
2020,06,26,06,36,00,300.2,,,,,,,,,,,,,,
2020,06,26,06,37,00,281.6,,,,,,,,,,,,,,
2020,06,26,06,38,00,300.5,,,,,,,,,,,,,,
2020,06,26,06,39,00,289.8,,,,,,,,,,,,,,
2020,06,26,06,40,00,293.3,,,,,,,,,,,,,,
2020,06,26,06,41,00,264.0,,,,,,,,,,,,,,
2020,06,26,06,42,00,268.8,,,,,,,,,,,,,,
2020,06,26,06,43,00,275.4,,,,,,,,,,,,,,
2020,06,26,06,44,00,293.6,,,,,,,,,,,,,,
2020,06,26,06,45,00,278.0,,,,,,,,,,,,,,
2020,06,26,06,46,00,282.5,,,,,,,,,,,,,,
2020,06,26,06,47,00,247.8,,,,,,,,,,,,,,
2020,06,26,06,48,00,280.0,,,,,,,,,,,,,,
2020,06,26,06,49,00,273.3,,,,,,,,,,,,,,
2020,06,26,06,50,00,266.3,,,,,,,,,,,,,,
2020,06,26,06,51,00,294.6,,,,,,,,,,,,,,
2020,06,26,06,52,00,291.5,,,,,,,,,,,,,,
2020,06,26,06,53,00,265.8,,,,,,,,,,,,,,
2020,06,26,06,54,00,260.4,,,,,,,,,,,,,,
2020,06,26,06,55,00,296.6,,,,,,,,,,,,,,
2020,06,26,06,56,00,301.3,,,,,,,,,,,,,,
2020,06,26,06,57,00,265.3,,,,,,,,,,,,,,
2020,06,26,06,58,00,238.8,,,,,,,,,,,,,,
2020,06,26,06,59,00,231.8,,,,,,,,,,,,,,
2020,06,26,07,00,00,188.2,,,,,,,,,,,,,,
2020,06,26,07,01,00,214.9,,,,,,,,,,,,,,
2020,06,26,07,02,00,231.2,,,,,,,,,,,,,,
2020,06,26,07,03,00,219.7,,,,,,,,,,,,,,
2020,06,26,07,04,00,240.1,,,,,,,,,,,,,,
2020,06,26,07,05,00,251.6,,,,,,,,,,,,,,
2020,06,26,07,06,00,259.9,,,,,,,,,,,,,,
2020,06,26,07,07,00,223.2,,,,,,,,,,,,,,
2020,06,26,07,08,00,244.8,,,,,,,,,,,,,,
2020,06,26,07,09,00,238.6,,,,,,,,,,,,,,
2020,06,26,07,10,00,237.4,,,,,,,,,,,,,,
2020,06,26,07,11,00,249.2,,,,,,,,,,,,,,
2020,06,26,07,12,00,232.7,,,,,,,,,,,,,,
2020,06,26,07,13,00,237.0,,,,,,,,,,,,,,
2020,06,26,07,14,00,220.5,,,,,,,,,,,,,,
2020,06,26,07,15,00,250.1,,,,,,,,,,,,,,
2020,06,26,07,16,00,214.9,,,,,,,,,,,,,,
2020,06,26,07,17,00,190.5,,,,,,,,,,,,,,
2020,06,26,07,18,00,165.7,,,,,,,,,,,,,,
2020,06,26,07,19,00,165.9,,,,,,,,,,,,,,
2020,06,26,07,20,00,181.5,,,,,,,,,,,,,,
2020,06,26,07,21,00,174.8,,,,,,,,,,,,,,
2020,06,26,07,22,00,183.3,,,,,,,,,,,,,,
2020,06,26,07,23,00,176.3,,,,,,,,,,,,,,
2020,06,26,07,24,00,182.5,,,,,,,,,,,,,,
2020,06,26,07,25,00,174.2,,,,,,,,,,,,,,
2020,06,26,07,26,00,183.4,,,,,,,,,,,,,,
2020,06,26,07,27,00,183.9,,,,,,,,,,,,,,
2020,06,26,07,28,00,165.1,,,,,,,,,,,,,,
2020,06,26,07,29,00,160.8,,,,,,,,,,,,,,
2020,06,26,07,30,00,172.2,,,,,,,,,,,,,,
2020,06,26,07,31,00,187.6,,,,,,,,,,,,,,
2020,06,26,07,32,00,200.4,,,,,,,,,,,,,,
2020,06,26,07,33,00,200.3,,,,,,,,,,,,,,
2020,06,26,07,34,00,187.3,,,,,,,,,,,,,,
2020,06,26,07,35,00,183.4,,,,,,,,,,,,,,
2020,06,26,07,36,00,191.7,,,,,,,,,,,,,,
2020,06,26,07,37,00,184.3,,,,,,,,,,,,,,
2020,06,26,07,38,00,177.8,,,,,,,,,,,,,,
2020,06,26,07,39,00,174.9,,,,,,,,,,,,,,
2020,06,26,07,40,00,170.3,,,,,,,,,,,,,,
2020,06,26,07,41,00,170.7,,,,,,,,,,,,,,
2020,06,26,07,42,00,175.9,,,,,,,,,,,,,,
2020,06,26,07,43,00,178.5,,,,,,,,,,,,,,
2020,06,26,07,44,00,183.8,,,,,,,,,,,,,,
2020,06,26,07,45,00,191.9,,,,,,,,,,,,,,
2020,06,26,07,46,00,206.0,,,,,,,,,,,,,,
2020,06,26,07,47,00,217.0,,,,,,,,,,,,,,
2020,06,26,07,48,00,219.5,,,,,,,,,,,,,,
2020,06,26,07,49,00,206.1,,,,,,,,,,,,,,
2020,06,26,07,50,00,196.7,,,,,,,,,,,,,,
2020,06,26,07,51,00,198.8,,,,,,,,,,,,,,
2020,06,26,07,52,00,184.0,,,,,,,,,,,,,,
2020,06,26,07,53,00,169.7,,,,,,,,,,,,,,
2020,06,26,07,54,00,176.3,,,,,,,,,,,,,,
2020,06,26,07,55,00,178.6,,,,,,,,,,,,,,
2020,06,26,07,56,00,172.6,,,,,,,,,,,,,,
2020,06,26,07,57,00,180.3,,,,,,,,,,,,,,
2020,06,26,07,58,00,200.2,,,,,,,,,,,,,,
2020,06,26,07,59,00,182.4,,,,,,,,,,,,,,
2020,06,26,08,00,00,165.0,,,,,,,,,,,,,,
2020,06,26,08,01,00,166.2,,,,,,,,,,,,,,
2020,06,26,08,02,00,167.6,,,,,,,,,,,,,,
2020,06,26,08,03,00,139.5,,,,,,,,,,,,,,
2020,06,26,08,04,00,88.4,,,,,,,,,,,,,,
2020,06,26,08,05,00,66.9,,,,,,,,,,,,,,
2020,06,26,08,06,00,11.5,,,,,,,,,,,,,,
2020,06,26,08,07,00,-5.1,,,,,,,,,,,,,,
2020,06,26,08,08,00,-48.8,,,,,,,,,,,,,,
2020,06,26,08,09,00,-124.6,,,,,,,,,,,,,,
2020,06,26,08,10,00,-160.3,,,,,,,,,,,,,,
2020,06,26,08,11,00,-211.1,,,,,,,,,,,,,,
2020,06,26,08,12,00,-276.4,,,,,,,,,,,,,,
2020,06,26,08,13,00,-362.6,,,,,,,,,,,,,,
2020,06,26,08,14,00,-466.0,,,,,,,,,,,,,,
2020,06,26,08,15,00,-553.4,,,,,,,,,,,,,,
2020,06,26,08,16,00,-726.4,,,,,,,,,,,,,,
2020,06,26,08,17,00,-987.1,,,,,,,,,,,,,,
2020,06,26,08,18,00,-1397.4,,,,,,,,,,,,,,
2020,06,26,08,19,00,-2072.5,,,,,,,,,,,,,,
2020,06,26,08,20,00,-2971.6,,,,,,,,,,,,,,
2020,06,26,08,21,00,-4440.5,,,,,,,,,,,,,,
2020,06,26,08,22,00,-6431.4,,,,,,,,,,,,,,
2020,06,26,08,23,00,-6230.9,,,,,,,,,,,,,,
2020,06,26,08,24,00,-4810.2,,,,,,,,,,,,,,
2020,06,26,08,25,00,-5831.2,,,,,,,,,,,,,,
2020,06,26,08,26,00,-9313.2,,,,,,,,,,,,,,
2020,06,26,08,27,00,-12529.0,,,,,,,,,,,,,,
2020,06,26,08,28,00,-15641.6,,,,,,,,,,,,,,
2020,06,26,08,29,00,-16956.6,,,,,,,,,,,,,,
2020,06,26,08,30,00,-16898.2,,,,,,,,,,,,,,
2020,06,26,08,31,00,-18468.7,,,,,,,,,,,,,,
2020,06,26,08,32,00,-19836.7,,,,,,,,,,,,,,
2020,06,26,08,33,00,-16793.5,,,,,,,,,,,,,,
2020,06,26,08,34,00,2191.3,,,,,,,,,,,,,,
2020,06,26,08,35,00,34.7,,,,,,,,,,,,,,
2020,06,26,08,36,00,-37.7,,,,,,,,,,,,,,
2020,06,26,08,37,00,-4533.4,,,,,,,,,,,,,,
2020,06,26,08,38,00,-4374.2,,,,,,,,,,,,,,
2020,06,26,08,39,00,-4387.5,,,,,,,,,,,,,,
2020,06,26,08,40,00,-3138.7,,,,,,,,,,,,,,
2020,06,26,08,41,00,-2138.9,,,,,,,,,,,,,,
2020,06,26,08,42,00,-1504.5,,,,,,,,,,,,,,
2020,06,26,08,43,00,-1102.3,,,,,,,,,,,,,,
2020,06,26,08,44,00,-999.7,,,,,,,,,,,,,,
2020,06,26,08,45,00,-954.9,,,,,,,,,,,,,,
2020,06,26,08,46,00,-876.0,,,,,,,,,,,,,,
2020,06,26,08,47,00,-834.5,,,,,,,,,,,,,,
2020,06,26,08,48,00,-841.5,,,,,,,,,,,,,,
2020,06,26,08,49,00,-503.4,,,,,,,,,,,,,,
2020,06,26,08,50,00,-302.7,,,,,,,,,,,,,,
2020,06,26,08,51,00,-322.8,,,,,,,,,,,,,,
2020,06,26,08,52,00,-281.9,,,,,,,,,,,,,,
2020,06,26,08,53,00,-263.6,,,,,,,,,,,,,,
2020,06,26,08,54,00,-212.5,,,,,,,,,,,,,,
2020,06,26,08,55,00,-128.5,,,,,,,,,,,,,,
2020,06,26,08,56,00,-80.0,,,,,,,,,,,,,,
2020,06,26,08,57,00,-61.0,,,,,,,,,,,,,,
2020,06,26,08,58,00,6.0,,,,,,,,,,,,,,
2020,06,26,08,59,00,27.1,,,,,,,,,,,,,,
2020,06,26,09,00,00,97.3,,,,,,,,,,,,,,
2020,06,26,09,01,00,152.9,,,,,,,,,,,,,,
2020,06,26,09,02,00,154.6,,,,,,,,,,,,,,
2020,06,26,09,03,00,54.2,,,,,,,,,,,,,,
2020,06,26,09,04,00,110.1,,,,,,,,,,,,,,
2020,06,26,09,05,00,-228.7,,,,,,,,,,,,,,
2020,06,26,09,06,00,32.4,,,,,,,,,,,,,,
2020,06,26,09,07,00,-86.1,,,,,,,,,,,,,,
2020,06,26,09,08,00,145.0,,,,,,,,,,,,,,
2020,06,26,09,09,00,-9.4,,,,,,,,,,,,,,
2020,06,26,09,10,00,447.9,,,,,,,,,,,,,,
2020,06,26,09,11,00,333.7,,,,,,,,,,,,,,
2020,06,26,09,12,00,784.5,,,,,,,,,,,,,,
2020,06,26,09,13,00,761.6,,,,,,,,,,,,,,
2020,06,26,09,14,00,1267.7,,,,,,,,,,,,,,
2020,06,26,09,15,00,1555.3,,,,,,,,,,,,,,
2020,06,26,09,16,00,1409.9,,,,,,,,,,,,,,
2020,06,26,09,17,00,1366.4,,,,,,,,,,,,,,
2020,06,26,09,18,00,1556.2,,,,,,,,,,,,,,
2020,06,26,09,19,00,2051.7,,,,,,,,,,,,,,
2020,06,26,09,20,00,1949.8,,,,,,,,,,,,,,
2020,06,26,09,21,00,2421.5,,,,,,,,,,,,,,
2020,06,26,09,22,00,2873.2,,,,,,,,,,,,,,
2020,06,26,09,23,00,3776.5,,,,,,,,,,,,,,
2020,06,26,09,24,00,4065.8,,,,,,,,,,,,,,
2020,06,26,09,25,00,4738.2,,,,,,,,,,,,,,
2020,06,26,09,26,00,2828.0,,,,,,,,,,,,,,
2020,06,26,09,27,00,-550.8,,,,,,,,,,,,,,
2020,06,26,09,28,00,-2124.0,,,,,,,,,,,,,,
2020,06,26,09,29,00,-2878.1,,,,,,,,,,,,,,
2020,06,26,09,30,00,-2380.7,,,,,,,,,,,,,,
2020,06,26,09,31,00,-2074.2,,,,,,,,,,,,,,
2020,06,26,09,32,00,-3260.6,,,,,,,,,,,,,,
2020,06,26,09,33,00,-3687.9,,,,,,,,,,,,,,
2020,06,26,09,34,00,-5614.6,,,,,,,,,,,,,,
2020,06,26,09,35,00,-3998.1,,,,,,,,,,,,,,
2020,06,26,09,36,00,-818.6,,,,,,,,,,,,,,
2020,06,26,09,37,00,1856.2,,,,,,,,,,,,,,
2020,06,26,09,38,00,4187.0,,,,,,,,,,,,,,
2020,06,26,09,39,00,5122.6,,,,,,,,,,,,,,
2020,06,26,09,40,00,4252.7,,,,,,,,,,,,,,
2020,06,26,09,41,00,4061.9,,,,,,,,,,,,,,